Regional Weather Roundup
Issued by NWS

Home | Current Version | Previous Version | Graphics & Text | Print | Product List | Glossary On
Versions: 1 2 3 4 5 6 7 8 9 10 11 12 13 14 15 16 17 18 19 20 21 22 23 24 25 26 27 28 29 30 31 32 33 34 35 36 37 38 39 40 41 42 43 44 45 46 47 48 49 50
000
ASUS43 KLSX 300759
RWRMO

WEATHER SUMMARY FOR MISSOURI
NATIONAL WEATHER SERVICE SPRINGFIELD MO
300 AM CDT SAT MAY 30 2015

NOTE: "FAIR" INDICATES FEW OR NO CLOUDS BELOW 12,000 FEET WITH NO
       SIGNIFICANT WEATHER AND/OR OBSTRUCTIONS TO VISIBILITY.
       CURRENT SKY AND/OR WEATHER CONDITIONS ARE NOT AVAILABLE FOR
       CHILLICOTHE AND FARMINGTON.

MOZ001>031-035>038-043-044-053-054-300900-
...NORTHERN AND WESTERN MISSOURI...

CITY           SKY/WX    TMP DP  RH WIND       PRES   REMARKS
KANSAS CTY INT CLOUDY    64  64 100 N3        29.97S FOG
KANSAS C DTWN  CLOUDY    67  63  87 CALM      29.95F
LEE`S SUMMIT   CLOUDY    63  61  93 W3        29.96F
ST JOSEPH      CLOUDY    62  60  93 N15       29.98S
CHILLICOTHE      N/A     66  64  93 CALM      29.96F
KIRKSVILLE     CLOUDY    66  65  96 NW6       29.97F

$$
MOZ066>068-077>081-088>096-101>105-300900-
...SOUTHWEST MISSOURI...

CITY           SKY/WX    TMP DP  RH WIND       PRES   REMARKS
SPRINGFIELD    LGT RAIN  66  64  93 NW3       29.96S
JOPLIN         CLOUDY    64  63  94 NW8       29.97R

$$
MOZ032>034-039>042-045>050-055>058-069>072-300900-
...CENTRAL MISSOURI...

CITY           SKY/WX    TMP DP  RH WIND       PRES   REMARKS
COLUMBIA       LGT RAIN  66  65  96 E3        29.96S
JEFFERSON CITY LGT RAIN  67  65  93 SE3       29.96R
ROLLA          LGT RAIN  65  64  97 S7        29.96S
SEDALIA        CLOUDY    67  64  90 N3        29.97S
WHITEMAN AFB   CLOUDY    66  66 100 E2        29.95F
OSAGE BEACH    CLOUDY    66  64  94 CALM      29.97R

$$
MOZ051-052-059>065-300900-
...EAST CENTRAL MISSOURI...

CITY           SKY/WX    TMP DP  RH WIND       PRES   REMARKS
ST LOUIS INTL  LGT RAIN  70  66  87 S9        29.97F FOG
SPIRIT OF STL  LGT RAIN  69  67  93 CALM      29.95S
ST CHARLES     LGT RAIN  68  66  93 CALM      29.96R

$$
MOZ072>076-082>087-097>100-106>115-300900-
...SOUTH CENTRAL AND SOUTHEAST MISSOURI...

CITY           SKY/WX    TMP DP  RH WIND       PRES   REMARKS
CAPE GIRARDEAU MOCLDY    73  69  87 S12       29.96F
FARMINGTON     CLOUDY    68  66  94 S3        30.00S
POPLAR BLUFF   LGT RAIN  73  66  78 SW15G26   29.96R
WEST PLAINS    LGT RAIN  65  63  93 NE9       29.95F

$$


USA.gov is the U.S. government's official web portal to all federal, state and local government web resources and services.